timestamp,wind_dir_avg,wind_spd_max_dir,wind_spd_avg,wind_spd_gust,battery_voltage,lat,long
2017-09-24 00:00:00+00:00,286.0,286.0,7.16,7.96,12.7,47.59359,-54.27349
2017-09-24 00:10:00+00:00,292.0,289.0,6.9,7.88,12.6,47.59359,-54.27349
2017-09-24 00:20:00+00:00,286.0,291.0,7.27,7.99,12.7,47.59359,-54.27349
2017-09-24 00:30:00+00:00,295.0,285.0,7.59,9.19,12.7,47.59359,-54.27349
2017-09-24 00:40:00+00:00,304.0,306.0,8.51,9.43,12.7,47.59359,-54.27349
2017-09-24 00:50:00+00:00,312.0,307.0,7.85,8.89,12.7,47.59359,-54.27349
2017-09-24 01:00:00+00:00,323.0,324.0,7.46,8.26,12.6,47.59359,-54.27349
2017-09-24 01:10:00+00:00,336.0,341.0,7.27,8.0,12.6,47.59359,-54.27349
2017-09-24 01:20:00+00:00,28.0,27.0,12.21,14.08,12.7,47.59359,-54.27349
2017-09-24 01:30:00+00:00,34.0,36.0,11.57,12.89,12.7,47.59359,-54.27349
2017-09-24 01:40:00+00:00,28.0,32.0,9.33,10.51,12.7,47.59359,-54.27349
2017-09-24 01:50:00+00:00,24.0,18.0,8.8,12.92,12.7,47.59359,-54.27349
2017-09-24 02:00:00+00:00,26.0,30.0,11.86,14.01,12.6,47.59359,-54.27349
2017-09-24 02:10:00+00:00,20.0,21.0,10.2,12.05,12.6,47.59359,-54.27349
2017-09-24 02:20:00+00:00,18.0,19.0,11.32,12.93,12.7,47.59359,-54.27349
2017-09-24 02:30:00+00:00,19.0,28.0,10.75,12.71,12.7,47.59359,-54.27349
2017-09-24 02:40:00+00:00,21.0,15.0,10.29,12.87,12.7,47.59359,-54.27349
2017-09-24 02:50:00+00:00,22.0,20.0,9.97,12.21,12.7,47.59359,-54.27349
2017-09-24 03:00:00+00:00,28.0,26.0,8.6,10.81,12.6,47.59359,-54.27349
2017-09-24 03:10:00+00:00,28.0,33.0,9.98,11.63,12.6,47.59359,-54.27349
2017-09-24 03:20:00+00:00,32.0,29.0,9.6,10.78,12.6,47.59359,-54.27349
2017-09-24 03:30:00+00:00,26.0,31.0,9.0,10.43,12.6,47.59359,-54.27349
2017-09-24 03:40:00+00:00,27.0,30.0,8.91,9.94,12.6,47.59359,-54.27349
2017-09-24 03:50:00+00:00,27.0,26.0,11.24,14.14,12.7,47.59359,-54.27349
2017-09-24 04:00:00+00:00,33.0,28.0,9.94,11.55,12.6,47.59359,-54.27349
2017-09-24 04:10:00+00:00,31.0,30.0,9.77,11.62,12.6,47.59359,-54.27349
2017-09-24 04:20:00+00:00,25.0,31.0,10.01,11.92,12.6,47.59359,-54.27349
2017-09-24 04:30:00+00:00,33.0,34.0,8.38,9.76,12.6,47.59359,-54.27349
2017-09-24 04:40:00+00:00,39.0,47.0,9.02,10.17,12.6,47.59359,-54.27349
2017-09-24 04:50:00+00:00,44.0,48.0,8.4,9.59,12.6,47.59359,-54.27349
2017-09-24 05:00:00+00:00,41.0,43.0,9.64,10.77,12.6,47.59359,-54.27349
2017-09-24 05:10:00+00:00,39.0,35.0,7.86,9.05,12.6,47.59359,-54.27349
2017-09-24 05:20:00+00:00,40.0,37.0,11.71,12.78,12.6,47.59359,-54.27349
2017-09-24 05:30:00+00:00,34.0,35.0,8.73,10.47,12.6,47.59359,-54.27349
2017-09-24 05:40:00+00:00,36.0,42.0,8.96,10.8,12.6,47.59359,-54.27349
2017-09-24 05:50:00+00:00,34.0,28.0,8.71,9.57,12.6,47.59359,-54.27349
2017-09-24 06:00:00+00:00,19.0,11.0,8.15,10.85,12.6,47.59359,-54.27349
2017-09-24 06:10:00+00:00,21.0,15.0,8.72,10.44,12.6,47.59359,-54.27349
2017-09-24 06:20:00+00:00,29.0,32.0,9.28,10.79,12.6,47.59359,-54.27349
2017-09-24 06:30:00+00:00,34.0,31.0,8.55,10.06,12.6,47.59359,-54.27349
2017-09-24 06:40:00+00:00,38.0,41.0,8.76,9.52,12.6,47.59359,-54.27349
2017-09-24 06:50:00+00:00,29.0,31.0,9.18,10.39,12.6,47.59359,-54.27349
2017-09-24 07:00:00+00:00,22.0,21.0,8.23,9.43,12.6,47.59359,-54.27349
2017-09-24 07:10:00+00:00,19.0,28.0,8.18,9.57,12.5,47.59359,-54.27349
2017-09-24 07:20:00+00:00,25.0,34.0,7.82,9.78,12.6,47.59359,-54.27349
2017-09-24 07:30:00+00:00,29.0,32.0,8.35,10.09,12.6,47.59359,-54.27349
2017-09-24 07:40:00+00:00,26.0,23.0,8.0,9.42,12.6,47.59359,-54.27349
2017-09-24 07:50:00+00:00,33.0,34.0,7.65,8.92,12.6,47.59359,-54.27349
2017-09-24 08:00:00+00:00,33.0,29.0,7.13,8.18,12.6,47.59359,-54.27349
2017-09-24 08:10:00+00:00,44.0,49.0,6.37,7.46,12.5,47.59359,-54.27349
2017-09-24 08:20:00+00:00,36.0,25.0,6.27,7.95,12.6,47.59359,-54.27349
2017-09-24 08:30:00+00:00,25.0,19.0,5.93,8.24,12.6,47.59359,-54.27349
2017-09-24 08:40:00+00:00,25.0,26.0,7.2,8.29,12.6,47.59359,-54.27349
2017-09-24 08:50:00+00:00,40.0,47.0,7.59,8.62,12.6,47.59359,-54.27349
2017-09-24 09:00:00+00:00,17.0,21.0,8.53,9.98,12.6,47.59359,-54.27349
2017-09-24 09:10:00+00:00,45.0,47.0,7.93,8.82,12.5,47.59359,-54.27349
2017-09-24 09:20:00+00:00,29.0,33.0,8.08,8.98,12.6,47.59359,-54.27349
2017-09-24 09:30:00+00:00,35.0,33.0,5.72,6.47,12.6,47.59359,-54.27349
2017-09-24 09:40:00+00:00,37.0,42.0,6.87,7.95,12.6,47.59359,-54.27349
2017-09-24 09:50:00+00:00,37.0,46.0,6.59,7.72,12.6,47.59359,-54.27349
2017-09-24 10:00:00+00:00,51.0,49.0,7.16,8.2,12.6,47.59359,-54.27349
2017-09-24 10:10:00+00:00,37.0,39.0,6.75,7.9,12.6,47.59359,-54.27349
2017-09-24 10:20:00+00:00,39.0,43.0,4.79,5.99,12.6,47.59359,-54.27349
2017-09-24 10:30:00+00:00,47.0,47.0,6.21,7.4,12.6,47.59359,-54.27349
2017-09-24 10:40:00+00:00,44.0,43.0,6.56,7.7,12.7,47.59359,-54.27349
2017-09-24 10:50:00+00:00,52.0,57.0,5.9,6.68,12.9,47.59359,-54.27349
2017-09-24 11:00:00+00:00,53.0,57.0,8.45,9.12,12.9,47.59359,-54.27349
2017-09-24 11:10:00+00:00,45.0,39.0,7.21,8.85,12.8,47.59359,-54.27349
2017-09-24 11:20:00+00:00,45.0,46.0,6.32,7.8,13.0,47.59359,-54.27349
2017-09-24 11:30:00+00:00,39.0,37.0,5.92,6.73,13.1,47.59359,-54.27349
2017-09-24 11:40:00+00:00,31.0,32.0,7.43,8.99,13.3,47.59359,-54.27349
2017-09-24 11:50:00+00:00,33.0,34.0,5.31,6.91,13.6,47.59359,-54.27349
2017-09-24 12:00:00+00:00,39.0,32.0,5.89,6.94,14.3,47.59359,-54.27349
2017-09-24 12:10:00+00:00,31.0,31.0,5.36,6.46,13.7,47.59359,-54.27349
2017-09-24 12:20:00+00:00,42.0,40.0,4.24,5.11,14.2,47.59359,-54.27349
2017-09-24 12:30:00+00:00,21.0,23.0,3.84,4.7,13.8,47.59359,-54.27349
2017-09-24 12:40:00+00:00,357.0,359.0,3.92,4.57,14.0,47.59359,-54.27349
2017-09-24 12:50:00+00:00,16.0,4.0,3.69,4.68,13.9,47.59359,-54.27349
2017-09-24 13:00:00+00:00,27.0,33.0,4.61,5.51,13.8,47.59359,-54.27349
2017-09-24 13:10:00+00:00,27.0,33.0,4.38,5.2,13.8,47.59359,-54.27349
2017-09-24 13:20:00+00:00,34.0,35.0,3.39,4.67,14.0,47.59359,-54.27349
2017-09-24 13:30:00+00:00,27.0,30.0,3.41,4.12,14.0,47.59359,-54.27349
2017-09-24 13:40:00+00:00,26.0,38.0,2.61,3.92,14.0,47.59359,-54.27349
2017-09-24 13:50:00+00:00,26.0,39.0,3.3,3.82,14.1,47.59359,-54.27349
2017-09-24 14:00:00+00:00,343.0,351.0,2.69,3.83,14.0,47.59359,-54.27349
2017-09-24 14:10:00+00:00,336.0,320.0,0.78,1.34,13.8,47.59359,-54.27349
2017-09-24 14:20:00+00:00,333.0,345.0,1.09,1.63,14.2,47.59359,-54.27349
2017-09-24 14:30:00+00:00,329.0,335.0,2.87,3.43,13.9,47.59359,-54.27349
2017-09-24 14:40:00+00:00,308.0,310.0,1.68,2.12,13.7,47.59359,-54.27349
2017-09-24 14:50:00+00:00,337.0,328.0,1.64,2.22,13.8,47.59359,-54.27349
2017-09-24 15:00:00+00:00,283.0,267.0,0.61,0.91,13.7,47.59359,-54.27349
2017-09-24 15:10:00+00:00,300.0,297.0,1.08,1.54,13.9,47.59359,-54.27349
2017-09-24 15:20:00+00:00,2.0,19.0,0.51,1.15,13.7,47.59359,-54.27349
2017-09-24 15:30:00+00:00,49.0,41.0,1.44,1.9,13.7,47.59359,-54.27349
2017-09-24 15:40:00+00:00,28.0,38.0,2.8,3.23,13.7,47.59359,-54.27349
2017-09-24 15:50:00+00:00,40.0,51.0,2.14,3.26,13.7,47.59359,-54.27349
2017-09-24 16:00:00+00:00,50.0,34.0,0.89,1.13,14.0,47.59359,-54.27349
2017-09-24 16:10:00+00:00,51.0,49.0,1.4,1.79,13.7,47.59359,-54.27349
2017-09-24 16:20:00+00:00,357.0,4.0,1.79,2.2,13.7,47.59359,-54.27349
2017-09-24 16:30:00+00:00,60.0,42.0,1.37,1.97,13.8,47.59359,-54.27349
2017-09-24 16:40:00+00:00,91.0,91.0,0.93,1.56,14.0,47.59359,-54.27349
2017-09-24 16:50:00+00:00,140.0,147.0,1.55,2.16,13.8,47.59359,-54.27349
2017-09-24 17:00:00+00:00,142.0,124.0,1.22,1.95,13.8,47.59359,-54.27349
2017-09-24 17:10:00+00:00,150.0,149.0,1.74,2.08,13.7,47.59359,-54.27349
2017-09-24 17:20:00+00:00,185.0,191.0,1.75,2.23,13.7,47.59359,-54.27349
2017-09-24 17:30:00+00:00,240.0,238.0,1.72,2.13,13.8,47.59359,-54.27349
2017-09-24 17:40:00+00:00,201.0,210.0,2.95,3.64,13.8,47.59359,-54.27349
2017-09-24 17:50:00+00:00,197.0,198.0,3.27,3.72,13.8,47.59359,-54.27349
2017-09-24 18:00:00+00:00,204.0,205.0,4.0,4.65,13.8,47.59359,-54.27349
2017-09-24 18:10:00+00:00,184.0,190.0,2.83,3.61,13.9,47.59359,-54.27349
2017-09-24 18:20:00+00:00,204.0,196.0,3.1,3.71,13.8,47.59359,-54.27349
2017-09-24 18:30:00+00:00,210.0,211.0,3.53,4.07,13.8,47.59359,-54.27349
2017-09-24 18:40:00+00:00,221.0,222.0,3.29,3.82,13.8,47.59359,-54.27349
2017-09-24 18:50:00+00:00,238.0,237.0,2.1,2.6,13.7,47.59359,-54.27349
2017-09-24 19:00:00+00:00,242.0,264.0,1.44,1.98,13.9,47.59359,-54.27349
2017-09-24 19:10:00+00:00,259.0,267.0,1.63,2.27,13.8,47.59359,-54.27349
2017-09-24 19:20:00+00:00,249.0,268.0,4.19,5.73,14.1,47.59359,-54.27349
2017-09-24 19:30:00+00:00,223.0,224.0,5.79,6.38,13.8,47.59359,-54.27349
2017-09-24 19:40:00+00:00,213.0,214.0,5.58,6.22,13.7,47.59359,-54.27349
2017-09-24 19:50:00+00:00,226.0,228.0,4.8,5.44,14.0,47.59359,-54.27349
2017-09-24 20:00:00+00:00,229.0,233.0,4.91,5.93,13.7,47.59359,-54.27349
2017-09-24 20:10:00+00:00,231.0,229.0,4.58,5.19,13.8,47.59359,-54.27349
2017-09-24 20:20:00+00:00,231.0,239.0,5.97,6.76,13.9,47.59359,-54.27349
2017-09-24 20:30:00+00:00,238.0,246.0,5.93,7.43,13.8,47.59359,-54.27349
2017-09-24 20:40:00+00:00,227.0,220.0,5.09,6.06,13.8,47.59359,-54.27349
2017-09-24 20:50:00+00:00,234.0,229.0,4.63,5.96,13.8,47.59359,-54.27349
2017-09-24 21:00:00+00:00,233.0,249.0,5.6,7.02,13.7,47.59359,-54.27349
2017-09-24 21:10:00+00:00,239.0,234.0,5.22,5.99,13.4,47.59359,-54.27349
2017-09-24 21:20:00+00:00,236.0,242.0,5.42,6.13,13.4,47.59359,-54.27349
2017-09-24 21:30:00+00:00,242.0,242.0,5.29,6.18,13.4,47.59359,-54.27349
2017-09-24 21:40:00+00:00,242.0,241.0,5.22,6.24,13.3,47.59359,-54.27349
2017-09-24 21:50:00+00:00,237.0,250.0,5.88,6.73,13.2,47.59359,-54.27349
2017-09-24 22:00:00+00:00,240.0,244.0,6.12,7.43,13.1,47.59359,-54.27349
2017-09-24 22:10:00+00:00,230.0,233.0,7.1,8.69,13.0,47.59359,-54.27349
2017-09-24 22:20:00+00:00,236.0,238.0,7.69,8.61,13.0,47.59359,-54.27349
2017-09-24 22:30:00+00:00,244.0,249.0,6.98,8.34,12.9,47.59359,-54.27349
2017-09-24 22:40:00+00:00,234.0,232.0,7.45,8.11,12.9,47.59359,-54.27349
2017-09-24 22:50:00+00:00,246.0,247.0,6.26,7.43,12.9,47.59359,-54.27349
2017-09-24 23:00:00+00:00,247.0,240.0,6.49,7.92,12.8,47.59359,-54.27349
2017-09-24 23:10:00+00:00,241.0,243.0,6.73,7.67,12.6,47.59359,-54.27349
2017-09-24 23:20:00+00:00,237.0,236.0,6.56,7.86,12.7,47.59359,-54.27349
2017-09-24 23:30:00+00:00,242.0,239.0,6.44,7.87,12.7,47.59359,-54.27349
2017-09-24 23:40:00+00:00,246.0,249.0,7.04,7.98,12.7,47.59359,-54.27349
2017-09-24 23:50:00+00:00,240.0,244.0,7.51,8.88,12.8,47.59359,-54.27349
